SCP
0 0 0 0 0 0 0 0 0 0 0 0 0 0 0 0 0 0 0 0 0 0
0 0 0 0 0 0 0 0 0 0 0 0 0 0 0 0 0 0 0 0 0 0
0 0 0 0 0 0 0 0 0 0 0 0 0 0 0 0 0 0 0 0 0 0
0 0 0 0 0 0 0 0 0 0 0 0 0 0 0 0 0 0 0 0 0 0
0 0 0 0 0 0 0 0 0 0 0 0 0 0 0 0 0 0 0 0 0 0
0 0 0 0 0 0 0 0 0 0 0 0 0 0 0 0 0 0 0 0 0 0
0 0 0 0 0 0 0 0 0 0 0 0 0 0 0 0 0 0 0 0 0 0
0 0 0 0 0 0 0 0 0 0 0 0 0 0 0 0 0 0 0 0 0 0
0 0 0 0 0 0 0 0 0 0 0 0 0 0 0 0 0 0 0 0 0 0
0 0 0 0 0 0 0 0 0 0 0 0 0 0 0 0 0 0 0 0 0 0
0 0 0 0 0 0 0 0 0 0 0 0 0 0 0 0 0 0 0 0 0 0
0 0 0 0 0 0 0 0 0 0 0 0 0 0 0 0 0 0 0 0 0 0
0 0 0 0 0 0 0 0 0 0 0 0 0 0 0 0 0 0 0 0 0 0
0 0 0 0 0 0 0 0 0 0 0 0 0 0 0 0 0 0 0 0 0 0
Wind_Speed_500mb
65 71 73 74 74 75 77 78 77 78 81 86 94 102 109 111 111 112 123 110 120 103
54 58 62 62 62 67 69 71 71 72 76 79 83 89 95 105 108 113 111 116 118 123
32 39 44 48 53 56 59 62 65 67 69 70 74 78 82 91 96 104 110 114 105 110
30 31 36 42 46 49 53 58 63 66 67 67 68 71 77 85 91 96 105 110 115 106
36 39 47 53 56 57 58 61 65 67 71 70 67 69 74 80 83 88 97 102 106 112
50 48 51 58 63 63 63 67 68 73 75 74 70 69 71 74 78 83 92 93 96 102
56 60 66 67 68 67 67 70 71 73 75 75 72 72 72 72 73 72 83 86 87 93
62 68 71 72 74 76 75 75 73 74 74 73 73 74 73 72 70 68 77 76 82 89
69 70 72 72 71 71 75 77 77 77 73 72 72 68 69 68 65 65 72 75 79 81
68 66 64 66 68 67 64 63 64 65 65 65 64 63 64 64 65 67 71 73 78 76
63 64 63 63 65 68 69 68 65 62 58 59 57 56 58 56 65 67 69 71 70 70
63 64 61 60 60 62 64 62 59 57 56 59 55 52 51 57 62 65 66 65 64 61
60 61 63 63 60 56 57 60 58 56 52 53 56 51 49 56 58 59 58 58 56 51
59 59 57 59 61 56 52 53 50 48 46 47 49 47 48 47 48 48 48 48 47 43
Wind_Direction_500mb
263 263 265 266 267 266 264 262 262 260 257 257 257 256 257 256 257 256 253 251 260 254
263 263 265 267 268 268 267 266 264 262 259 258 257 258 257 257 256 254 254 253 261 252
276 271 271 268 265 266 268 268 268 266 264 263 262 261 259 259 260 255 255 258 256 256
319 300 287 279 275 271 270 270 268 268 268 266 265 264 264 262 261 258 256 256 258 265
310 297 289 284 281 275 271 270 270 270 269 267 266 267 267 265 262 259 255 255 259 260
293 295 293 291 288 279 274 270 270 269 268 268 269 270 269 267 265 260 256 258 259 263
287 288 292 288 284 280 278 277 274 273 272 272 272 272 270 267 265 262 257 259 265 266
288 289 287 283 280 278 277 276 273 273 270 269 268 269 270 269 265 259 258 261 263 264
287 287 285 283 282 279 276 275 274 272 273 270 268 267 267 264 261 260 261 263 268 265
292 289 287 285 284 283 281 279 276 273 271 271 270 270 268 263 256 255 256 261 266 268
301 297 294 289 286 284 284 282 278 272 267 266 264 264 266 263 259 256 257 261 265 264
305 303 302 301 296 289 284 279 275 273 267 264 262 261 261 258 259 258 259 262 265 263
306 304 304 302 300 295 288 282 276 270 268 269 268 260 252 254 259 259 261 265 263 258
305 305 302 299 299 296 293 287 282 274 270 269 267 260 256 254 258 260 263 263 261 256
Wind_Speed_850mb
65 71 73 74 74 75 77 78 77 78 81 86 94 102 109 111 111 112 123 110 120 103
54 58 62 62 62 67 69 71 71 72 76 79 83 89 95 105 108 113 111 116 118 123
32 39 44 48 53 56 59 62 65 67 69 70 74 78 82 91 96 104 110 114 105 110
30 31 36 42 46 49 53 58 63 66 67 67 68 71 77 85 91 96 105 110 115 106
36 39 47 53 56 57 58 61 65 67 71 70 67 69 74 80 83 88 97 102 106 112
50 48 51 58 63 63 63 67 68 73 75 74 70 69 71 74 78 83 92 93 96 102
56 60 66 67 68 67 67 70 71 73 75 75 72 72 72 72 73 72 83 86 87 93
62 68 71 72 74 76 75 75 73 74 74 73 73 74 73 72 70 68 77 76 82 89
69 70 72 72 71 71 75 77 77 77 73 72 72 68 69 68 65 65 72 75 79 81
68 66 64 66 68 67 64 63 64 65 65 65 64 63 64 64 65 67 71 73 78 76
63 64 63 63 65 68 69 68 65 62 58 59 57 56 58 56 65 67 69 71 70 70
63 64 61 60 60 62 64 62 59 57 56 59 55 52 51 57 62 65 66 65 64 61
60 61 63 63 60 56 57 60 58 56 52 53 56 51 49 56 58 59 58 58 56 51
59 59 57 59 61 56 52 53 50 48 46 47 49 47 48 47 48 48 48 48 47 43
Wind_Direction_850mb
263 263 265 266 267 266 264 262 262 260 257 257 257 256 257 256 257 256 253 251 260 254
263 263 265 267 268 268 267 266 264 262 259 258 257 258 257 257 256 254 254 253 261 252
276 271 271 268 265 266 268 268 268 266 264 263 262 261 259 259 260 255 255 258 256 256
319 300 287 279 275 271 270 270 268 268 268 266 265 264 264 262 261 258 256 256 258 265
310 297 289 284 281 275 271 270 270 270 269 267 266 267 267 265 262 259 255 255 259 260
293 295 293 291 288 279 274 270 270 269 268 268 269 270 269 267 265 260 256 258 259 263
287 288 292 288 284 280 278 277 274 273 272 272 272 272 270 267 265 262 257 259 265 266
288 289 287 283 280 278 277 276 273 273 270 269 268 269 270 269 265 259 258 261 263 264
287 287 285 283 282 279 276 275 274 272 273 270 268 267 267 264 261 260 261 263 268 265
292 289 287 285 284 283 281 279 276 273 271 271 270 270 268 263 256 255 256 261 266 268
301 297 294 289 286 284 284 282 278 272 267 266 264 264 266 263 259 256 257 261 265 264
305 303 302 301 296 289 284 279 275 273 267 264 262 261 261 258 259 258 259 262 265 263
306 304 304 302 300 295 288 282 276 270 268 269 268 260 252 254 259 259 261 265 263 258
305 305 302 299 299 296 293 287 282 274 270 269 267 260 256 254 258 260 263 263 261 256